Location: Songkhla
(7.2000°N, 100.6000°E)
Time: 20:52:31
(UTC+07:00)

Cosmos 2341 Rocket - Pass Details

Date: 16 April 2026
Orbit: 968 x 1002 km, 82.9° (Epoch: 20 May)

Event Time Altitude Azimuth Distance (km) Brightness Sun altitude
Rises 19:24:15 0° 164° (SSE) 3,652 6.7 -15.0°
Reaches altitude 10° 19:26:59 10° 155° (SSE) 2,706 6.0 -15.6°
Maximum altitude 19:32:31 35° 92° (E) 1,521 4.5 -17.0°
Drops below altitude 10° 19:38:04 10° 28° (NNE) 2,716 6.2 -18.3°
Sets 19:40:47 0° 20° (NNE) 3,667 7.0 -19.0°
